Time,TemperatureF,DewpointF,PressureIn,WindDirection,WindDirectionDegrees,WindSpeedMPH,WindSpeedGustMPH,Humidity,HourlyPrecipIn,Conditions,Clouds,dailyrainin,SoftwareType,DateUTC
2013-11-02 00:02:00,74.3,71.5,29.89,SSW,211,0.0,2.0,91,0.00,,,0.00,Wunderground v.1.15,2013-11-02 04:02:00,
2013-11-02 00:04:00,74.3,71.5,29.89,SSW,211,0.0,2.0,91,0.00,,,0.00,Wunderground v.1.15,2013-11-02 04:04:00,
2013-11-02 00:06:00,74.3,71.5,29.89,SSW,211,0.0,2.0,91,0.00,,,0.00,Wunderground v.1.15,2013-11-02 04:06:00,
2013-11-02 00:12:00,74.4,71.6,29.89,SSW,211,0.0,2.0,91,0.00,,,0.00,Wunderground v.1.15,2013-11-02 04:12:00,
2013-11-02 00:14:00,74.3,71.5,29.89,SSW,211,0.0,2.0,91,0.00,,,0.00,Wunderground v.1.15,2013-11-02 04:14:00,
2013-11-02 00:20:00,74.2,71.7,29.89,SSW,211,0.0,2.0,92,0.00,,,0.00,Wunderground v.1.15,2013-11-02 04:20:00,
2013-11-02 00:24:00,74.1,71.6,29.89,SSW,211,0.0,2.0,92,0.00,,,0.00,Wunderground v.1.15,2013-11-02 04:24:00,
2013-11-02 00:30:00,73.9,71.1,29.88,SSW,211,0.0,2.0,91,0.00,,,0.00,Wunderground v.1.15,2013-11-02 04:30:00,
2013-11-02 00:36:00,73.6,71.1,29.88,SSW,211,0.0,2.0,92,0.00,,,0.00,Wunderground v.1.15,2013-11-02 04:36:00,
2013-11-02 00:42:00,73.5,71.4,29.88,SSW,211,0.0,2.0,93,0.00,,,0.00,Wunderground v.1.15,2013-11-02 04:42:00,
2013-11-02 00:48:00,73.4,71.6,29.88,SSW,211,0.0,2.0,94,0.00,,,0.00,Wunderground v.1.15,2013-11-02 04:48:00,
2013-11-02 00:50:00,73.4,71.3,29.87,SSW,211,0.0,2.0,93,0.00,,,0.00,Wunderground v.1.15,2013-11-02 04:50:00,
2013-11-02 00:56:00,73.5,71.4,29.87,SSW,211,0.0,2.0,93,0.00,,,0.00,Wunderground v.1.15,2013-11-02 04:56:00,
2013-11-02 01:02:00,73.5,71.4,29.87,SSW,211,0.0,2.0,93,0.00,,,0.00,Wunderground v.1.15,2013-11-02 05:02:00,
2013-11-02 01:08:00,73.7,71.2,29.87,SSW,211,0.0,2.0,92,0.00,,,0.00,Wunderground v.1.15,2013-11-02 05:08:00,
2013-11-02 01:14:00,73.9,71.4,29.87,SSW,211,0.0,2.0,92,0.00,,,0.00,Wunderground v.1.15,2013-11-02 05:14:00,
2013-11-02 01:20:00,73.6,71.1,29.87,SSW,211,0.0,2.0,92,0.00,,,0.00,Wunderground v.1.15,2013-11-02 05:20:00,
2013-11-02 01:26:00,73.6,71.4,29.87,SSW,211,0.0,2.0,93,0.00,,,0.00,Wunderground v.1.15,2013-11-02 05:26:00,
2013-11-02 01:32:00,73.6,71.4,29.87,SSW,211,0.0,2.0,93,0.00,,,0.00,Wunderground v.1.15,2013-11-02 05:32:00,
2013-11-02 01:38:00,73.6,71.4,29.87,SSW,211,0.0,2.0,93,0.00,,,0.00,Wunderground v.1.15,2013-11-02 05:38:00,
2013-11-02 01:44:00,73.6,71.8,29.87,SSW,211,0.0,2.0,94,0.00,,,0.00,Wunderground v.1.15,2013-11-02 05:44:00,
2013-11-02 01:50:00,73.7,71.9,29.87,SSW,211,0.0,2.0,94,0.00,,,0.00,Wunderground v.1.15,2013-11-02 05:50:00,
2013-11-02 01:56:00,73.5,71.4,29.86,SSW,211,0.0,2.0,93,0.00,,,0.00,Wunderground v.1.15,2013-11-02 05:56:00,
2013-11-02 02:02:00,73.2,71.4,29.87,SSW,211,0.0,2.0,94,0.00,,,0.00,Wunderground v.1.15,2013-11-02 06:02:00,
2013-11-02 02:08:00,73.2,71.7,29.86,SSW,211,0.0,2.0,95,0.00,,,0.00,Wunderground v.1.15,2013-11-02 06:08:00,
2013-11-02 02:14:00,73.2,71.4,29.86,SSW,211,0.0,2.0,94,0.00,,,0.00,Wunderground v.1.15,2013-11-02 06:14:00,
2013-11-02 02:20:00,73.1,71.6,29.86,SSW,211,0.0,2.0,95,0.00,,,0.00,Wunderground v.1.15,2013-11-02 06:20:00,
2013-11-02 02:26:00,73.2,71.7,29.86,SSW,211,0.0,2.0,95,0.00,,,0.00,Wunderground v.1.15,2013-11-02 06:26:00,
2013-11-02 02:32:00,72.9,71.1,29.85,SSW,211,0.0,2.0,94,0.00,,,0.00,Wunderground v.1.15,2013-11-02 06:32:00,
2013-11-02 02:38:00,72.6,71.1,29.85,SSW,211,0.0,2.0,95,0.00,,,0.00,Wunderground v.1.15,2013-11-02 06:38:00,
2013-11-02 02:44:00,72.6,71.1,29.85,SSW,211,0.0,2.0,95,0.00,,,0.00,Wunderground v.1.15,2013-11-02 06:44:00,
2013-11-02 02:50:00,72.6,71.4,29.85,SSW,211,0.0,2.0,96,0.00,,,0.00,Wunderground v.1.15,2013-11-02 06:50:00,
2013-11-02 02:56:00,72.9,71.7,29.85,SSW,211,0.0,2.0,96,0.00,,,0.00,Wunderground v.1.15,2013-11-02 06:56:00,
2013-11-02 03:02:00,72.9,71.4,29.84,SSW,211,0.0,2.0,95,0.00,,,0.00,Wunderground v.1.15,2013-11-02 07:02:00,
2013-11-02 03:08:00,72.6,71.1,29.84,SSW,211,0.0,2.0,95,0.00,,,0.00,Wunderground v.1.15,2013-11-02 07:08:00,
2013-11-02 03:14:00,72.6,71.4,29.84,SSW,211,0.0,2.0,96,0.00,,,0.00,Wunderground v.1.15,2013-11-02 07:14:00,
2013-11-02 03:20:00,72.9,71.7,29.84,WSW,250,0.0,2.0,96,0.00,,,0.00,Wunderground v.1.15,2013-11-02 07:20:00,
2013-11-02 03:26:00,73.2,72.0,29.84,West,266,0.0,2.0,96,0.00,,,0.00,Wunderground v.1.15,2013-11-02 07:26:00,
2013-11-02 03:32:00,73.4,72.2,29.84,West,267,0.0,2.0,96,0.00,,,0.00,Wunderground v.1.15,2013-11-02 07:32:00,
2013-11-02 03:38:00,73.4,71.9,29.84,West,267,0.0,2.0,95,0.00,,,0.00,Wunderground v.1.15,2013-11-02 07:38:00,
2013-11-02 03:44:00,73.0,71.5,29.84,West,267,0.0,2.0,95,0.00,,,0.00,Wunderground v.1.15,2013-11-02 07:44:00,
2013-11-02 03:50:00,72.9,71.7,29.84,West,267,0.0,2.0,96,0.00,,,0.00,Wunderground v.1.15,2013-11-02 07:50:00,
2013-11-02 03:56:00,73.0,71.8,29.84,West,267,0.0,2.0,96,0.00,,,0.00,Wunderground v.1.15,2013-11-02 07:56:00,
2013-11-02 04:02:00,72.8,71.6,29.84,West,267,0.0,0.0,96,0.00,,,0.00,Wunderground v.1.15,2013-11-02 08:02:00,
2013-11-02 04:08:00,72.6,71.4,29.84,West,267,0.0,0.0,96,0.00,,,0.00,Wunderground v.1.15,2013-11-02 08:08:00,
2013-11-02 04:14:00,72.5,71.3,29.83,West,267,0.0,0.0,96,0.00,,,0.00,Wunderground v.1.15,2013-11-02 08:14:00,
2013-11-02 04:20:00,72.4,71.2,29.83,West,267,0.0,0.0,96,0.00,,,0.00,Wunderground v.1.15,2013-11-02 08:20:00,
2013-11-02 04:26:00,72.4,71.5,29.83,West,267,0.0,0.0,97,0.00,,,0.00,Wunderground v.1.15,2013-11-02 08:26:00,
2013-11-02 04:32:00,72.2,71.0,29.83,West,267,0.0,0.0,96,0.00,,,0.00,Wunderground v.1.15,2013-11-02 08:32:00,
2013-11-02 04:38:00,72.2,71.3,29.83,West,267,0.0,0.0,97,0.00,,,0.00,Wunderground v.1.15,2013-11-02 08:38:00,
2013-11-02 04:44:00,71.9,70.7,29.83,West,267,0.0,0.0,96,0.00,,,0.00,Wunderground v.1.15,2013-11-02 08:44:00,
2013-11-02 04:50:00,71.8,70.9,29.82,West,267,0.0,0.0,97,0.00,,,0.00,Wunderground v.1.15,2013-11-02 08:50:00,
2013-11-02 04:56:00,71.9,71.0,29.83,West,267,0.0,0.0,97,0.00,,,0.00,Wunderground v.1.15,2013-11-02 08:56:00,
2013-11-02 05:02:00,71.7,70.8,29.83,West,267,0.0,0.0,97,0.00,,,0.00,Wunderground v.1.15,2013-11-02 09:02:00,
2013-11-02 05:08:00,71.6,70.7,29.83,West,267,0.0,0.0,97,0.00,,,0.00,Wunderground v.1.15,2013-11-02 09:08:00,
2013-11-02 05:14:00,71.7,70.8,29.83,West,267,0.0,0.0,97,0.00,,,0.00,Wunderground v.1.15,2013-11-02 09:14:00,
2013-11-02 05:20:00,71.5,70.6,29.82,West,267,0.0,0.0,97,0.00,,,0.00,Wunderground v.1.15,2013-11-02 09:20:00,
2013-11-02 05:26:00,71.3,70.4,29.82,West,267,0.0,0.0,97,0.00,,,0.00,Wunderground v.1.15,2013-11-02 09:26:00,
2013-11-02 05:32:00,71.6,71.0,29.82,West,267,0.0,0.0,98,0.00,,,0.00,Wunderground v.1.15,2013-11-02 09:32:00,
2013-11-02 05:38:00,71.5,70.6,29.82,West,267,0.0,0.0,97,0.00,,,0.00,Wunderground v.1.15,2013-11-02 09:38:00,
2013-11-02 05:44:00,71.5,70.9,29.82,South,181,0.0,0.0,98,0.00,,,0.00,Wunderground v.1.15,2013-11-02 09:44:00,
2013-11-02 05:50:00,71.4,70.5,29.82,South,181,0.0,0.0,97,0.00,,,0.00,Wunderground v.1.15,2013-11-02 09:50:00,
2013-11-02 05:56:00,71.1,70.2,29.83,South,181,0.0,0.0,97,0.00,,,0.00,Wunderground v.1.15,2013-11-02 09:56:00,
2013-11-02 06:02:00,71.1,70.5,29.82,SE,136,0.0,0.0,98,0.00,,,0.00,Wunderground v.1.15,2013-11-02 10:02:00,
2013-11-02 06:08:00,71.2,70.6,29.82,SE,137,0.0,0.0,98,0.00,,,0.00,Wunderground v.1.15,2013-11-02 10:08:00,
2013-11-02 06:14:00,71.3,70.7,29.82,SE,132,0.0,0.0,98,0.00,,,0.00,Wunderground v.1.15,2013-11-02 10:14:00,
2013-11-02 06:20:00,71.3,70.7,29.83,SE,132,0.0,0.0,98,0.00,,,0.00,Wunderground v.1.15,2013-11-02 10:20:00,
2013-11-02 06:26:00,71.2,70.6,29.83,SE,134,0.0,0.0,98,0.00,,,0.00,Wunderground v.1.15,2013-11-02 10:26:00,
2013-11-02 06:32:00,71.1,70.2,29.83,SE,134,0.0,0.0,97,0.00,,,0.00,Wunderground v.1.15,2013-11-02 10:32:00,
2013-11-02 06:38:00,70.9,70.0,29.83,SE,134,0.0,0.0,97,0.00,,,0.00,Wunderground v.1.15,2013-11-02 10:38:00,
2013-11-02 06:44:00,70.5,69.6,29.83,SE,134,0.0,0.0,97,0.00,,,0.00,Wunderground v.1.15,2013-11-02 10:44:00,
2013-11-02 06:50:00,70.8,70.2,29.83,SE,134,0.0,0.0,98,0.00,,,0.00,Wunderground v.1.15,2013-11-02 10:50:00,
2013-11-02 06:56:00,70.6,70.0,29.83,SE,134,0.0,0.0,98,0.00,,,0.00,Wunderground v.1.15,2013-11-02 10:56:00,
2013-11-02 07:02:00,70.4,69.5,29.83,SE,134,0.0,0.0,97,0.00,,,0.00,Wunderground v.1.15,2013-11-02 11:02:00,
2013-11-02 07:08:00,70.1,69.5,29.83,SE,134,0.0,0.0,98,0.00,,,0.00,Wunderground v.1.15,2013-11-02 11:08:00,
2013-11-02 07:14:00,70.3,69.7,29.83,SE,134,0.0,0.0,98,0.00,,,0.00,Wunderground v.1.15,2013-11-02 11:14:00,
2013-11-02 07:20:00,70.4,69.8,29.83,SE,134,0.0,0.0,98,0.00,,,0.00,Wunderground v.1.15,2013-11-02 11:20:00,
2013-11-02 07:26:00,70.4,69.8,29.83,SE,134,0.0,0.0,98,0.00,,,0.00,Wunderground v.1.15,2013-11-02 11:26:00,
2013-11-02 07:32:00,70.3,69.7,29.84,SE,134,0.0,0.0,98,0.00,,,0.00,Wunderground v.1.15,2013-11-02 11:32:00,
2013-11-02 07:38:00,70.9,70.6,29.83,SE,139,0.0,0.0,99,0.00,,,0.00,Wunderground v.1.15,2013-11-02 11:38:00,
2013-11-02 07:44:00,71.0,70.4,29.83,SE,139,0.0,0.0,98,0.00,,,0.00,Wunderground v.1.15,2013-11-02 11:44:00,
2013-11-02 07:50:00,71.3,70.7,29.84,SE,139,0.0,0.0,98,0.00,,,0.00,Wunderground v.1.15,2013-11-02 11:50:00,
2013-11-02 07:56:00,71.5,70.9,29.84,SE,139,0.0,0.0,98,0.00,,,0.00,Wunderground v.1.15,2013-11-02 11:56:00,
2013-11-02 08:02:00,71.9,71.3,29.84,SE,139,0.0,0.0,98,0.00,,,0.00,Wunderground v.1.15,2013-11-02 12:02:00,
2013-11-02 08:08:00,72.4,71.8,29.84,SE,139,0.0,0.0,98,0.00,,,0.00,Wunderground v.1.15,2013-11-02 12:08:00,
2013-11-02 08:14:00,73.0,72.4,29.84,SE,139,0.0,0.0,98,0.00,,,0.00,Wunderground v.1.15,2013-11-02 12:14:00,
2013-11-02 08:20:00,73.8,73.2,29.84,SE,139,0.0,0.0,98,0.00,,,0.00,Wunderground v.1.15,2013-11-02 12:20:00,
2013-11-02 08:26:00,74.3,73.4,29.85,SE,139,0.0,0.0,97,0.00,,,0.00,Wunderground v.1.15,2013-11-02 12:26:00,
2013-11-02 08:32:00,74.9,73.1,29.85,SSE,165,0.0,0.0,94,0.00,,,0.00,Wunderground v.1.15,2013-11-02 12:32:00,
2013-11-02 08:38:00,75.1,73.3,29.85,SSE,165,0.0,0.0,94,0.00,,,0.00,Wunderground v.1.15,2013-11-02 12:38:00,
2013-11-02 08:44:00,75.5,73.7,29.85,South,169,0.0,0.0,94,0.00,,,0.00,Wunderground v.1.15,2013-11-02 12:44:00,
2013-11-02 08:50:00,76.3,73.5,29.85,SW,219,0.0,0.0,91,0.00,,,0.00,Wunderground v.1.15,2013-11-02 12:50:00,
2013-11-02 08:56:00,76.9,74.1,29.85,West,278,0.0,0.0,91,0.00,,,0.00,Wunderground v.1.15,2013-11-02 12:56:00,
2013-11-02 09:02:00,77.5,74.0,29.86,South,186,0.0,0.0,89,0.00,,,0.00,Wunderground v.1.15,2013-11-02 13:02:00,
2013-11-02 09:08:00,78.0,74.2,29.86,SSW,203,0.0,3.0,88,0.00,,,0.00,Wunderground v.1.15,2013-11-02 13:08:00,
2013-11-02 09:14:00,78.6,74.4,29.86,South,176,1.0,1.0,87,0.00,,,0.00,Wunderground v.1.15,2013-11-02 13:14:00,
2013-11-02 09:20:00,79.1,73.8,29.86,SSW,205,1.0,1.0,84,0.00,,,0.00,Wunderground v.1.15,2013-11-02 13:20:00,
2013-11-02 09:26:00,79.1,73.8,29.86,West,262,1.0,2.0,84,0.00,,,0.00,Wunderground v.1.15,2013-11-02 13:26:00,
2013-11-02 09:32:00,80.2,74.2,29.86,West,273,1.0,1.0,82,0.00,,,0.00,Wunderground v.1.15,2013-11-02 13:32:00,
2013-11-02 09:38:00,80.5,74.1,29.86,West,278,1.0,4.0,81,0.00,,,0.00,Wunderground v.1.15,2013-11-02 13:38:00,
2013-11-02 09:44:00,80.8,73.7,29.86,WSW,250,1.0,2.0,79,0.00,,,0.00,Wunderground v.1.15,2013-11-02 13:44:00,
2013-11-02 09:50:00,81.2,73.7,29.87,SW,234,1.0,2.0,78,0.00,,,0.00,Wunderground v.1.15,2013-11-02 13:50:00,
2013-11-02 09:56:00,81.5,74.0,29.87,SSW,196,2.0,4.0,78,0.00,,,0.00,Wunderground v.1.15,2013-11-02 13:56:00,
2013-11-02 10:02:00,82.1,74.2,29.87,WSW,257,2.0,2.0,77,0.00,,,0.00,Wunderground v.1.15,2013-11-02 14:02:00,
2013-11-02 10:08:00,82.5,73.8,29.87,SSE,167,2.0,3.0,75,0.00,,,0.00,Wunderground v.1.15,2013-11-02 14:08:00,
2013-11-02 10:14:00,82.4,73.7,29.87,South,182,2.0,3.0,75,0.00,,,0.00,Wunderground v.1.15,2013-11-02 14:14:00,
2013-11-02 10:20:00,83.1,74.4,29.87,WSW,240,2.0,5.0,75,0.00,,,0.00,Wunderground v.1.15,2013-11-02 14:20:00,
2013-11-02 10:26:00,83.1,73.1,29.87,WNW,303,2.0,5.0,72,0.00,,,0.00,Wunderground v.1.15,2013-11-02 14:26:00,
2013-11-02 10:32:00,83.6,73.2,29.87,SW,235,2.0,2.0,71,0.00,,,0.00,Wunderground v.1.15,2013-11-02 14:32:00,
2013-11-02 10:38:00,84.1,73.3,29.87,SSW,199,2.0,4.0,70,0.00,,,0.00,Wunderground v.1.15,2013-11-02 14:38:00,
2013-11-02 10:44:00,84.3,72.6,29.87,South,180,2.0,6.0,68,0.00,,,0.00,Wunderground v.1.15,2013-11-02 14:44:00,
2013-11-02 10:50:00,84.2,72.0,29.87,South,191,3.0,3.0,67,0.00,,,0.00,Wunderground v.1.15,2013-11-02 14:50:00,
2013-11-02 10:56:00,84.1,72.4,29.87,SW,221,3.0,6.0,68,0.00,,,0.00,Wunderground v.1.15,2013-11-02 14:56:00,
2013-11-02 11:02:00,84.8,72.6,29.87,WSW,249,3.0,3.0,67,0.00,,,0.00,Wunderground v.1.15,2013-11-02 15:02:00,
2013-11-02 11:08:00,85.4,72.7,29.87,SW,215,2.0,3.0,66,0.00,,,0.00,Wunderground v.1.15,2013-11-02 15:08:00,
2013-11-02 11:14:00,85.3,72.2,29.87,SW,217,2.0,2.0,65,0.00,,,0.00,Wunderground v.1.15,2013-11-02 15:14:00,
2013-11-02 11:20:00,85.0,71.5,29.87,SSE,160,2.0,3.0,64,0.00,,,0.00,Wunderground v.1.15,2013-11-02 15:20:00,
2013-11-02 11:26:00,85.3,70.8,29.87,WNW,288,3.0,3.0,62,0.00,,,0.00,Wunderground v.1.15,2013-11-02 15:26:00,
2013-11-02 11:32:00,85.6,70.6,29.86,SE,132,3.0,3.0,61,0.00,,,0.00,Wunderground v.1.15,2013-11-02 15:32:00,
2013-11-02 11:38:00,86.3,70.8,29.86,SSW,211,2.0,3.0,60,0.00,,,0.00,Wunderground v.1.15,2013-11-02 15:38:00,
2013-11-02 11:44:00,87.0,70.4,29.86,WSW,250,2.0,2.0,58,0.00,,,0.00,Wunderground v.1.15,2013-11-02 15:44:00,
2013-11-02 11:50:00,87.3,70.2,29.86,SW,228,2.0,2.0,57,0.00,,,0.00,Wunderground v.1.15,2013-11-02 15:50:00,
2013-11-02 11:56:00,87.0,71.4,29.85,WSW,250,3.0,6.0,60,0.00,,,0.00,Wunderground v.1.15,2013-11-02 15:56:00,
2013-11-02 12:02:00,87.3,71.7,29.85,WNW,302,3.0,3.0,60,0.00,,,0.00,Wunderground v.1.15,2013-11-02 16:02:00,
2013-11-02 12:08:00,87.1,70.5,29.85,West,262,3.0,3.0,58,0.00,,,0.00,Wunderground v.1.15,2013-11-02 16:08:00,
2013-11-02 12:14:00,87.2,70.6,29.85,NW,309,3.0,3.0,58,0.00,,,0.00,Wunderground v.1.15,2013-11-02 16:14:00,
2013-11-02 12:20:00,86.6,71.1,29.85,WNW,291,4.0,4.0,60,0.00,,,0.00,Wunderground v.1.15,2013-11-02 16:20:00,
2013-11-02 12:26:00,85.7,71.2,29.84,SW,229,4.0,4.0,62,0.00,,,0.00,Wunderground v.1.15,2013-11-02 16:26:00,
2013-11-02 12:32:00,85.7,71.2,29.84,West,267,3.0,4.0,62,0.00,,,0.00,Wunderground v.1.15,2013-11-02 16:32:00,
2013-11-02 12:38:00,85.8,69.8,29.84,West,272,4.0,5.0,59,0.00,,,0.00,Wunderground v.1.15,2013-11-02 16:38:00,
2013-11-02 12:44:00,86.2,68.7,29.84,SW,231,4.0,9.0,56,0.00,,,0.00,Wunderground v.1.15,2013-11-02 16:44:00,
2013-11-02 12:50:00,86.3,67.2,29.83,West,264,4.0,4.0,53,0.00,,,0.00,Wunderground v.1.15,2013-11-02 16:50:00,
2013-11-02 12:56:00,86.8,65.9,29.83,SSW,211,4.0,7.0,50,0.00,,,0.00,Wunderground v.1.15,2013-11-02 16:56:00,
2013-11-02 13:02:00,86.7,67.5,29.83,West,272,4.0,6.0,53,0.00,,,0.00,Wunderground v.1.15,2013-11-02 17:02:00,
2013-11-02 13:08:00,86.0,69.5,29.83,West,274,4.0,6.0,58,0.00,,,0.00,Wunderground v.1.15,2013-11-02 17:08:00,
2013-11-02 13:14:00,86.6,68.5,29.83,WSW,245,3.0,4.0,55,0.00,,,0.00,Wunderground v.1.15,2013-11-02 17:14:00,
2013-11-02 13:20:00,87.0,69.4,29.82,West,263,3.0,3.0,56,0.00,,,0.00,Wunderground v.1.15,2013-11-02 17:20:00,
2013-11-02 13:26:00,86.7,69.6,29.82,WNW,294,2.0,3.0,57,0.00,,,0.00,Wunderground v.1.15,2013-11-02 17:26:00,
2013-11-02 13:32:00,86.9,70.3,29.81,ESE,109,3.0,3.0,58,0.00,,,0.00,Wunderground v.1.15,2013-11-02 17:32:00,
2013-11-02 13:38:00,87.7,70.6,29.81,South,173,2.0,3.0,57,0.00,,,0.00,Wunderground v.1.15,2013-11-02 17:38:00,
2013-11-02 13:44:00,87.5,69.3,29.81,West,262,2.0,3.0,55,0.00,,,0.00,Wunderground v.1.15,2013-11-02 17:44:00,
2013-11-02 13:50:00,87.4,68.7,29.80,WNW,293,2.0,2.0,54,0.00,,,0.00,Wunderground v.1.15,2013-11-02 17:50:00,
2013-11-02 13:56:00,88.3,70.1,29.80,SSW,206,2.0,3.0,55,0.00,,,0.00,Wunderground v.1.15,2013-11-02 17:56:00,
2013-11-02 14:02:00,88.2,67.8,29.80,SSW,194,3.0,6.0,51,0.00,,,0.00,Wunderground v.1.15,2013-11-02 18:02:00,
2013-11-02 14:08:00,88.9,69.0,29.80,SSE,168,3.0,6.0,52,0.00,,,0.00,Wunderground v.1.15,2013-11-02 18:08:00,
2013-11-02 14:14:00,89.1,68.0,29.79,West,280,2.0,3.0,50,0.00,,,0.00,Wunderground v.1.15,2013-11-02 18:14:00,
2013-11-02 14:20:00,88.9,69.0,29.79,SW,232,2.0,5.0,52,0.00,,,0.00,Wunderground v.1.15,2013-11-02 18:20:00,
2013-11-02 14:26:00,88.5,69.7,29.79,SW,225,2.0,5.0,54,0.00,,,0.00,Wunderground v.1.15,2013-11-02 18:26:00,
2013-11-02 14:32:00,88.2,67.8,29.78,West,276,3.0,5.0,51,0.00,,,0.00,Wunderground v.1.15,2013-11-02 18:32:00,
2013-11-02 14:38:00,87.7,68.4,29.78,WNW,296,4.0,7.0,53,0.00,,,0.00,Wunderground v.1.15,2013-11-02 18:38:00,
2013-11-02 14:44:00,87.3,68.6,29.78,WSW,252,4.0,7.0,54,0.00,,,0.00,Wunderground v.1.15,2013-11-02 18:44:00,
2013-11-02 14:50:00,88.0,68.7,29.78,SW,215,3.0,3.0,53,0.00,,,0.00,Wunderground v.1.15,2013-11-02 18:50:00,
2013-11-02 14:56:00,88.3,68.4,29.78,SW,236,2.0,6.0,52,0.00,,,0.00,Wunderground v.1.15,2013-11-02 18:56:00,
2013-11-02 15:02:00,88.1,67.7,29.78,WSW,247,3.0,3.0,51,0.00,,,0.00,Wunderground v.1.15,2013-11-02 19:02:00,
2013-11-02 15:08:00,87.8,68.0,29.77,SE,135,2.0,4.0,52,0.00,,,0.00,Wunderground v.1.15,2013-11-02 19:08:00,
2013-11-02 15:14:00,88.6,68.2,29.77,SSE,166,1.0,3.0,51,0.00,,,0.00,Wunderground v.1.15,2013-11-02 19:14:00,
2013-11-02 15:20:00,88.8,67.8,29.77,West,264,2.0,2.0,50,0.00,,,0.00,Wunderground v.1.15,2013-11-02 19:20:00,
2013-11-02 15:26:00,88.3,67.3,29.77,South,178,2.0,2.0,50,0.00,,,0.00,Wunderground v.1.15,2013-11-02 19:26:00,
2013-11-02 15:32:00,88.0,66.4,29.76,West,269,2.0,2.0,49,0.00,,,0.00,Wunderground v.1.15,2013-11-02 19:32:00,
2013-11-02 15:38:00,88.2,67.2,29.76,WSW,255,2.0,5.0,50,0.00,,,0.00,Wunderground v.1.15,2013-11-02 19:38:00,
2013-11-02 15:44:00,88.6,67.0,29.76,West,274,2.0,2.0,49,0.00,,,0.00,Wunderground v.1.15,2013-11-02 19:44:00,
2013-11-02 15:52:00,88.7,66.5,29.76,SSW,207,2.0,3.0,48,0.00,,,0.00,Wunderground v.1.15,2013-11-02 19:52:00,
2013-11-02 15:58:00,88.8,66.6,29.76,West,274,1.0,3.0,48,0.00,,,0.00,Wunderground v.1.15,2013-11-02 19:58:00,
2013-11-02 16:04:00,88.6,67.0,29.76,WNW,291,2.0,4.0,49,0.00,,,0.00,Wunderground v.1.15,2013-11-02 20:04:00,
2013-11-02 16:10:00,87.9,66.9,29.76,WNW,299,3.0,4.0,50,0.00,,,0.00,Wunderground v.1.15,2013-11-02 20:10:00,
2013-11-02 16:16:00,88.2,67.2,29.76,West,278,3.0,5.0,50,0.00,,,0.00,Wunderground v.1.15,2013-11-02 20:16:00,
2013-11-02 16:22:00,89.0,67.4,29.76,SSW,195,2.0,3.0,49,0.00,,,0.00,Wunderground v.1.15,2013-11-02 20:22:00,
2013-11-02 16:28:00,89.8,68.1,29.76,SW,225,2.0,3.0,49,0.00,,,0.00,Wunderground v.1.15,2013-11-02 20:28:00,
2013-11-02 16:34:00,88.6,67.6,29.76,WNW,288,2.0,5.0,50,0.00,,,0.00,Wunderground v.1.15,2013-11-02 20:34:00,
2013-11-02 16:40:00,88.6,68.2,29.76,SE,131,2.0,2.0,51,0.00,,,0.00,Wunderground v.1.15,2013-11-02 20:40:00,
2013-11-02 16:46:00,88.3,67.9,29.75,West,269,2.0,4.0,51,0.00,,,0.00,Wunderground v.1.15,2013-11-02 20:46:00,
2013-11-02 16:52:00,87.7,67.9,29.76,NW,308,2.0,3.0,52,0.00,,,0.00,Wunderground v.1.15,2013-11-02 20:52:00,
2013-11-02 16:58:00,87.4,68.2,29.76,WSW,243,2.0,4.0,53,0.00,,,0.00,Wunderground v.1.15,2013-11-02 20:58:00,
2013-11-02 17:04:00,87.1,67.9,29.76,SSE,150,2.0,6.0,53,0.00,,,0.00,Wunderground v.1.15,2013-11-02 21:04:00,
2013-11-02 17:10:00,86.8,67.6,29.76,West,259,3.0,3.0,53,0.00,,,0.00,Wunderground v.1.15,2013-11-02 21:10:00,
2013-11-02 17:16:00,86.7,67.5,29.76,SW,233,2.0,3.0,53,0.00,,,0.00,Wunderground v.1.15,2013-11-02 21:16:00,
2013-11-02 17:22:00,86.6,68.0,29.76,WSW,239,2.0,3.0,54,0.00,,,0.00,Wunderground v.1.15,2013-11-02 21:22:00,
2013-11-02 17:28:00,86.7,68.1,29.76,West,266,2.0,3.0,54,0.00,,,0.00,Wunderground v.1.15,2013-11-02 21:28:00,
2013-11-02 17:34:00,86.7,68.1,29.76,NNW,347,2.0,5.0,54,0.00,,,0.00,Wunderground v.1.15,2013-11-02 21:34:00,
2013-11-02 17:40:00,86.3,67.7,29.76,WSW,255,2.0,2.0,54,0.00,,,0.00,Wunderground v.1.15,2013-11-02 21:40:00,
2013-11-02 17:46:00,85.7,67.7,29.76,SSW,199,2.0,2.0,55,0.00,,,0.00,Wunderground v.1.15,2013-11-02 21:46:00,
2013-11-02 17:52:00,85.5,68.0,29.76,SW,226,2.0,4.0,56,0.00,,,0.00,Wunderground v.1.15,2013-11-02 21:52:00,
2013-11-02 17:58:00,85.4,68.4,29.77,SW,214,2.0,4.0,57,0.00,,,0.00,Wunderground v.1.15,2013-11-02 21:58:00,
2013-11-02 18:04:00,85.3,68.3,29.77,SE,146,1.0,1.0,57,0.00,,,0.00,Wunderground v.1.15,2013-11-02 22:04:00,
2013-11-02 18:10:00,85.1,68.2,29.77,West,259,1.0,1.0,57,0.00,,,0.00,Wunderground v.1.15,2013-11-02 22:10:00,
2013-11-02 18:16:00,85.0,68.6,29.77,West,267,2.0,2.0,58,0.00,,,0.00,Wunderground v.1.15,2013-11-02 22:16:00,
2013-11-02 18:22:00,84.8,68.9,29.77,WSW,257,1.0,1.0,59,0.00,,,0.00,Wunderground v.1.15,2013-11-02 22:22:00,
2013-11-02 18:28:00,84.7,69.3,29.78,West,274,2.0,2.0,60,0.00,,,0.00,Wunderground v.1.15,2013-11-02 22:28:00,
2013-11-02 18:34:00,84.4,70.9,29.79,NNW,338,2.0,8.0,64,0.00,,,0.00,Wunderground v.1.15,2013-11-02 22:34:00,
2013-11-02 18:40:00,82.2,71.9,29.79,NNW,342,5.0,6.0,71,0.00,,,0.00,Wunderground v.1.15,2013-11-02 22:40:00,
2013-11-02 18:46:00,81.3,72.2,29.79,WNW,293,5.0,6.0,74,0.00,,,0.00,Wunderground v.1.15,2013-11-02 22:46:00,
2013-11-02 18:52:00,80.9,72.2,29.80,NW,318,3.0,4.0,75,0.00,,,0.00,Wunderground v.1.15,2013-11-02 22:52:00,
2013-11-02 18:58:00,80.5,72.2,29.80,North,353,3.0,4.0,76,0.00,,,0.00,Wunderground v.1.15,2013-11-02 22:58:00,
2013-11-02 19:04:00,80.1,72.2,29.80,WNW,303,3.0,4.0,77,0.00,,,0.00,Wunderground v.1.15,2013-11-02 23:04:00,
2013-11-02 19:10:00,79.8,72.3,29.80,NW,309,3.0,4.0,78,0.00,,,0.00,Wunderground v.1.15,2013-11-02 23:10:00,
2013-11-02 19:16:00,79.6,72.5,29.81,NW,307,4.0,6.0,79,0.00,,,0.00,Wunderground v.1.15,2013-11-02 23:16:00,
2013-11-02 19:22:00,79.4,72.3,29.81,NNW,334,4.0,4.0,79,0.00,,,0.00,Wunderground v.1.15,2013-11-02 23:22:00,
2013-11-02 19:28:00,79.2,72.5,29.81,North,10,4.0,4.0,80,0.00,,,0.00,Wunderground v.1.15,2013-11-02 23:28:00,
2013-11-02 19:34:00,79.0,72.3,29.82,NW,325,4.0,4.0,80,0.00,,,0.00,Wunderground v.1.15,2013-11-02 23:34:00,
2013-11-02 19:40:00,78.8,72.1,29.82,WNW,288,3.0,5.0,80,0.00,,,0.00,Wunderground v.1.15,2013-11-02 23:40:00,
2013-11-02 19:46:00,78.5,72.2,29.82,NNW,338,2.0,5.0,81,0.00,,,0.00,Wunderground v.1.15,2013-11-02 23:46:00,
2013-11-02 19:52:00,78.4,72.1,29.83,NNW,331,2.0,5.0,81,0.00,,,0.00,Wunderground v.1.15,2013-11-02 23:52:00,
2013-11-02 19:58:00,78.3,72.3,29.83,NNW,340,2.0,5.0,82,0.00,,,0.00,Wunderground v.1.15,2013-11-02 23:58:00,
2013-11-02 20:04:00,78.1,72.2,29.83,NNW,333,2.0,2.0,82,0.00,,,0.00,Wunderground v.1.15,2013-11-03 00:04:00,
2013-11-02 20:10:00,78.1,72.2,29.83,NE,39,1.0,2.0,82,0.00,,,0.00,Wunderground v.1.15,2013-11-03 00:10:00,
2013-11-02 20:16:00,78.0,72.4,29.84,NNW,335,1.0,2.0,83,0.00,,,0.00,Wunderground v.1.15,2013-11-03 00:16:00,
2013-11-02 20:22:00,77.9,72.3,29.84,NNE,25,1.0,1.0,83,0.00,,,0.00,Wunderground v.1.15,2013-11-03 00:22:00,
2013-11-02 20:28:00,77.9,72.3,29.84,NE,56,0.0,1.0,83,0.00,,,0.00,Wunderground v.1.15,2013-11-03 00:28:00,
2013-11-02 20:34:00,77.7,72.1,29.84,NE,52,0.0,0.0,83,0.00,,,0.00,Wunderground v.1.15,2013-11-03 00:34:00,
2013-11-02 20:40:00,77.7,72.1,29.84,NE,56,0.0,1.0,83,0.00,,,0.00,Wunderground v.1.15,2013-11-03 00:40:00,
2013-11-02 20:46:00,77.6,72.0,29.84,NE,56,0.0,1.0,83,0.00,,,0.00,Wunderground v.1.15,2013-11-03 00:46:00,
2013-11-02 20:52:00,77.4,71.8,29.84,NE,55,0.0,0.0,83,0.00,,,0.00,Wunderground v.1.15,2013-11-03 00:52:00,
2013-11-02 20:58:00,77.2,72.0,29.85,NE,55,0.0,1.0,84,0.00,,,0.00,Wunderground v.1.15,2013-11-03 00:58:00,
2013-11-02 21:04:00,77.1,71.9,29.85,NNW,342,0.0,2.0,84,0.00,,,0.00,Wunderground v.1.15,2013-11-03 01:04:00,
2013-11-02 21:10:00,77.1,71.9,29.85,NNW,330,0.0,0.0,84,0.00,,,0.00,Wunderground v.1.15,2013-11-03 01:10:00,
2013-11-02 21:16:00,77.1,71.5,29.85,NNW,327,0.0,2.0,83,0.00,,,0.00,Wunderground v.1.15,2013-11-03 01:16:00,
2013-11-02 21:22:00,77.1,71.5,29.85,NNW,345,1.0,1.0,83,0.00,,,0.00,Wunderground v.1.15,2013-11-03 01:22:00,
2013-11-02 21:28:00,77.1,71.9,29.86,NNW,345,1.0,1.0,84,0.00,,,0.00,Wunderground v.1.15,2013-11-03 01:28:00,
2013-11-02 21:34:00,77.1,71.9,29.85,NNW,340,0.0,0.0,84,0.00,,,0.00,Wunderground v.1.15,2013-11-03 01:34:00,
2013-11-02 21:40:00,77.2,72.0,29.86,NNW,345,1.0,1.0,84,0.00,,,0.00,Wunderground v.1.15,2013-11-03 01:40:00,
2013-11-02 21:46:00,77.2,72.0,29.86,NNW,340,1.0,2.0,84,0.00,,,0.00,Wunderground v.1.15,2013-11-03 01:46:00,
2013-11-02 21:52:00,77.1,71.9,29.86,NNE,13,1.0,1.0,84,0.00,,,0.00,Wunderground v.1.15,2013-11-03 01:52:00,
2013-11-02 21:58:00,77.0,71.8,29.86,North,357,2.0,5.0,84,0.00,,,0.00,Wunderground v.1.15,2013-11-03 01:58:00,
2013-11-02 22:04:00,76.9,71.7,29.86,NW,323,2.0,5.0,84,0.00,,,0.00,Wunderground v.1.15,2013-11-03 02:04:00,
2013-11-02 22:10:00,76.9,71.7,29.86,NW,314,2.0,2.0,84,0.00,,,0.00,Wunderground v.1.15,2013-11-03 02:10:00,
2013-11-02 22:16:00,76.9,71.7,29.86,North,351,3.0,7.0,84,0.00,,,0.00,Wunderground v.1.15,2013-11-03 02:16:00,
2013-11-02 22:22:00,76.6,70.7,29.86,NW,326,6.0,9.0,82,0.00,,,0.00,Wunderground v.1.15,2013-11-03 02:22:00,
2013-11-02 22:28:00,76.2,70.3,29.86,NW,323,7.0,10.0,82,0.00,,,0.00,Wunderground v.1.15,2013-11-03 02:28:00,
2013-11-02 22:34:00,75.7,68.4,29.87,NNW,335,7.0,10.0,78,0.00,,,0.00,Wunderground v.1.15,2013-11-03 02:34:00,
2013-11-02 22:40:00,75.3,66.8,29.87,NW,319,8.0,8.0,75,0.00,,,0.00,Wunderground v.1.15,2013-11-03 02:40:00,
2013-11-02 22:45:00,75.1,65.9,29.87,ENE,58,7.0,8.0,73,0.00,,,0.00,Wunderground v.1.15,2013-11-03 02:45:00,
2013-11-02 22:52:00,74.6,65.0,29.87,NNW,332,5.0,5.0,72,0.00,,,0.00,Wunderground v.1.15,2013-11-03 02:52:00,
2013-11-02 22:58:00,74.2,65.4,29.87,NW,319,4.0,10.0,74,0.00,,,0.00,Wunderground v.1.15,2013-11-03 02:58:00,
2013-11-02 23:04:00,73.9,65.1,29.86,NNW,334,4.0,5.0,74,0.00,,,0.00,Wunderground v.1.15,2013-11-03 03:04:00,
2013-11-02 23:10:00,73.7,64.9,29.86,NNW,346,6.0,6.0,74,0.00,,,0.00,Wunderground v.1.15,2013-11-03 03:10:00,
2013-11-02 23:16:00,73.5,65.5,29.86,NW,316,4.0,6.0,76,0.00,,,0.00,Wunderground v.1.15,2013-11-03 03:16:00,
2013-11-02 23:22:00,73.3,65.3,29.86,NW,324,5.0,5.0,76,0.00,,,0.00,Wunderground v.1.15,2013-11-03 03:22:00,
2013-11-02 23:28:00,73.1,65.5,29.86,NW,324,5.0,6.0,77,0.00,,,0.00,Wunderground v.1.15,2013-11-03 03:28:00,
2013-11-02 23:34:00,72.8,65.5,29.86,NW,313,4.0,4.0,78,0.00,,,0.00,Wunderground v.1.15,2013-11-03 03:34:00,
2013-11-02 23:40:00,72.7,65.1,29.86,NNW,328,4.0,6.0,77,0.00,,,0.00,Wunderground v.1.15,2013-11-03 03:40:00,
2013-11-02 23:46:00,72.6,65.0,29.86,NNW,331,4.0,6.0,77,0.00,,,0.00,Wunderground v.1.15,2013-11-03 03:46:00,
2013-11-02 23:52:00,72.5,64.9,29.86,NW,312,3.0,4.0,77,0.00,,,0.00,Wunderground v.1.15,2013-11-03 03:52:00,
2013-11-02 23:58:00,72.3,64.3,29.86,NW,318,3.0,4.0,76,0.00,,,0.00,Wunderground v.1.15,2013-11-03 03:58:00,